DLH9VT LICJ-EDDM

Flight info

Callsign DLH9VT
Flight time N/A
Altitude 38000
Route LURON DCT DORAS DCT BEROL DCT PNZ DCT LAT DCT SUMIR DCT NAXAV DCT SOTOV T101 BETOS BETOS1A
Aircraft A320/M-SDE2E3FGIJ1LORWXYZ/HB1

Departure

Time 2026-04-29 19:09
Airport Falcone–Borsellino Airport (LICJ)

Arrival

Time N/A
Airport Munich Airport (EDDM)
Time Latitude Longitude Altitude Speed Heading
2026-04-29 18:39 38.18476 13.10375 65 ft 0 kts 67°
2026-04-29 19:00 38.18475 13.10372 32 ft 3 kts 66°
2026-04-29 19:00 38.18464 13.10341 46 ft 4 kts 60°
2026-04-29 19:00 38.18449 13.10313 58 ft 4 kts 50°
2026-04-29 19:00 38.18430 13.10289 60 ft 4 kts 33°
2026-04-29 19:01 38.18407 13.10278 56 ft 4 kts 347°
2026-04-29 19:01 38.18385 13.10287 58 ft 4 kts 339°
2026-04-29 19:01 38.18360 13.10300 59 ft 4 kts 337°
2026-04-29 19:01 38.18335 13.10313 56 ft 4 kts 337°
2026-04-29 19:02 38.18312 13.10324 57 ft 4 kts 358°
2026-04-29 19:02 38.18295 13.10322 57 ft 4 kts 26°
2026-04-29 19:02 38.18269 13.10292 58 ft 4 kts 59°
2026-04-29 19:02 38.18262 13.10275 58 ft 0 kts 67°
2026-04-29 19:05 38.18267 13.10289 58 ft 6 kts 67°
2026-04-29 19:05 38.18275 13.10342 60 ft 6 kts 108°
2026-04-29 19:05 38.18242 13.10371 64 ft 7 kts 153°
2026-04-29 19:05 38.18245 13.10459 62 ft 17 kts 66°
2026-04-29 19:06 38.18294 13.10603 61 ft 19 kts 66°
2026-04-29 19:06 38.18347 13.10763 59 ft 21 kts 67°
2026-04-29 19:06 38.18468 13.11123 59 ft 24 kts 67°
2026-04-29 19:07 38.18535 13.11321 65 ft 25 kts 66°
2026-04-29 19:07 38.18581 13.11456 60 ft 26 kts 67°
2026-04-29 19:07 38.18610 13.11662 66 ft 15 kts 97°
2026-04-29 19:07 38.18596 13.11800 66 ft 16 kts 97°
2026-04-29 19:08 38.18545 13.11902 70 ft 12 kts 160°
2026-04-29 19:08 38.18514 13.11877 67 ft 4 kts 248°
2026-04-29 19:08 38.18495 13.11816 70 ft 22 kts 247°
2026-04-29 19:08 38.18323 13.11306 66 ft 99 kts 247°
2026-04-29 19:09 38.17975 13.10268 64 ft 154 kts 246°
2026-04-29 19:09 38.17530 13.08920 510 ft 166 kts 247°
2026-04-29 19:09 38.17094 13.07569 1279 ft 165 kts 246°
2026-04-29 19:09 38.16654 13.06225 1975 ft 168 kts 245°
2026-04-29 19:10 38.16159 13.04785 2334 ft 189 kts 244°
2026-04-29 19:10 38.15637 13.03143 2639 ft 215 kts 250°
2026-04-29 19:10 38.15391 13.01180 3049 ft 242 kts 266°
2026-04-29 19:10 38.15624 12.98946 3554 ft 267 kts 285°
2026-04-29 19:11 38.16458 12.96763 4431 ft 276 kts 304°
2026-04-29 19:11 38.17791 12.94995 5392 ft 279 kts 322°
2026-04-29 19:11 38.19453 12.93703 6372 ft 281 kts 327°
2026-04-29 19:11 38.21023 12.92225 7292 ft 282 kts 317°
2026-04-29 19:12 38.22356 12.90404 8206 ft 282 kts 306°
2026-04-29 19:12 38.23438 12.88355 9121 ft 283 kts 301°
2026-04-29 19:12 38.24511 12.86246 10045 ft 285 kts 301°
2026-04-29 19:12 38.25248 12.84799 10453 ft 295 kts 301°
2026-04-29 19:13 38.26794 12.81758 10974 ft 319 kts 301°
2026-04-29 19:13 38.28177 12.79511 11695 ft 326 kts 313°
2026-04-29 19:13 38.29948 12.77676 12504 ft 332 kts 325°
2026-04-29 19:13 38.32021 12.76328 13265 ft 338 kts 333°
2026-04-29 19:14 38.34250 12.75294 13988 ft 346 kts 344°
2026-04-29 19:14 38.36670 12.74983 14651 ft 354 kts 359°
2026-04-29 19:14 38.39128 12.75476 15309 ft 362 kts 14°
2026-04-29 19:14 38.41451 12.76779 15970 ft 370 kts 28°
2026-04-29 19:15 38.43659 12.78492 16641 ft 373 kts 29°
2026-04-29 19:15 38.45876 12.80226 17317 ft 376 kts 29°
2026-04-29 19:15 38.48114 12.81976 17973 ft 379 kts 28°
2026-04-29 19:15 38.50374 12.83739 18581 ft 382 kts 28°
2026-04-29 19:16 38.52652 12.85519 19139 ft 386 kts 28°
2026-04-29 19:16 38.54951 12.87312 19689 ft 389 kts 28°
2026-04-29 19:16 38.57267 12.89119 20242 ft 392 kts 29°
2026-04-29 19:16 38.59601 12.90943 20793 ft 395 kts 29°
2026-04-29 19:17 38.61951 12.92781 21323 ft 398 kts 29°
2026-04-29 19:17 38.64319 12.94636 21875 ft 400 kts 29°
2026-04-29 19:17 38.66698 12.96502 22413 ft 403 kts 29°
2026-04-29 19:17 38.69095 12.98377 22934 ft 405 kts 29°
2026-04-29 19:18 38.71509 13.00265 23453 ft 408 kts 29°
2026-04-29 19:18 38.73116 13.01524 23757 ft 410 kts 28°
2026-04-29 19:18 38.76386 13.04089 24301 ft 414 kts 28°
2026-04-29 19:18 38.78849 13.06028 24703 ft 417 kts 28°
2026-04-29 19:19 38.81328 13.07983 25096 ft 420 kts 28°
2026-04-29 19:19 38.83927 13.09675 25466 ft 419 kts 18°
2026-04-29 19:19 38.86664 13.10745 25862 ft 417 kts
2026-04-29 19:19 38.89531 13.11206 26254 ft 414 kts 358°
2026-04-29 19:20 38.92406 13.11096 26641 ft 414 kts 353°
2026-04-29 19:20 38.95288 13.10878 27033 ft 416 kts 352°
2026-04-29 19:20 38.98188 13.10660 27423 ft 418 kts 352°
2026-04-29 19:20 39.01101 13.10443 27814 ft 421 kts 352°
2026-04-29 19:21 39.04032 13.10225 28191 ft 423 kts 352°
2026-04-29 19:21 39.06974 13.10006 28571 ft 425 kts 353°
2026-04-29 19:21 39.09943 13.09785 28876 ft 429 kts 354°
2026-04-29 19:21 39.12934 13.09563 29206 ft 432 kts 354°
2026-04-29 19:22 39.15944 13.09337 29559 ft 435 kts 354°
2026-04-29 19:22 39.18971 13.09108 29909 ft 437 kts 354°
2026-04-29 19:22 39.22016 13.08876 30237 ft 439 kts 354°
2026-04-29 19:22 39.25071 13.08643 30522 ft 441 kts 354°
2026-04-29 19:23 39.28143 13.08407 30809 ft 443 kts 353°
2026-04-29 19:23 39.31229 13.08174 31076 ft 446 kts 354°
2026-04-29 19:23 39.34331 13.07943 31315 ft 448 kts 354°
2026-04-29 19:23 39.37449 13.07708 31591 ft 449 kts 354°
2026-04-29 19:24 39.40568 13.07471 31977 ft 448 kts 354°
2026-04-29 19:24 39.43677 13.07236 32369 ft 447 kts 354°
2026-04-29 19:24 39.46777 13.07001 32759 ft 446 kts 354°
2026-04-29 19:24 39.49870 13.06764 33147 ft 445 kts 354°
2026-04-29 19:25 39.52959 13.06526 33526 ft 444 kts 355°
2026-04-29 19:25 39.56043 13.06289 33855 ft 445 kts 355°
2026-04-29 19:25 39.59134 13.06052 34194 ft 444 kts 355°
2026-04-29 19:25 39.62214 13.05816 34513 ft 444 kts 355°
2026-04-29 19:26 39.65293 13.05581 34814 ft 443 kts 354°
2026-04-29 19:26 39.68368 13.05346 35112 ft 442 kts 354°
2026-04-29 19:26 39.71434 13.05110 35402 ft 441 kts 354°
2026-04-29 19:26 39.74500 13.04872 35690 ft 441 kts 355°
2026-04-29 19:27 39.77563 13.04636 35948 ft 441 kts 355°
2026-04-29 19:27 39.80579 13.04406 36209 ft 440 kts 355°
2026-04-29 19:27 39.83674 13.04171 36477 ft 440 kts 355°
2026-04-29 19:27 39.86729 13.03938 36730 ft 439 kts 355°
2026-04-29 19:28 39.89777 13.03705 36989 ft 438 kts 354°
2026-04-29 19:28 39.92817 13.03468 37235 ft 438 kts 354°
2026-04-29 19:28 39.95817 13.03231 37465 ft 437 kts 354°
2026-04-29 19:28 39.98855 13.02990 37701 ft 437 kts 354°
2026-04-29 19:29 40.01886 13.02749 37943 ft 436 kts 354°
2026-04-29 19:29 40.04918 13.02510 38080 ft 436 kts 354°
2026-04-29 19:29 40.07944 13.02273 38099 ft 435 kts 354°
2026-04-29 19:30 40.13982 13.01805 38098 ft 434 kts 354°
2026-04-29 19:30 40.20016 13.01336 38097 ft 434 kts 354°
2026-04-29 19:31 40.26042 13.00867 38098 ft 434 kts 355°
2026-04-29 19:31 40.32073 13.00402 38098 ft 434 kts 354°
2026-04-29 19:32 40.38103 12.99927 38099 ft 434 kts 354°
2026-04-29 19:32 40.44117 12.99453 38096 ft 434 kts 355°
2026-04-29 19:33 40.50152 12.98975 38097 ft 434 kts 355°
2026-04-29 19:33 40.56176 12.98498 38099 ft 434 kts 355°
2026-04-29 19:34 40.61185 12.98106 38100 ft 434 kts 355°
2026-04-29 19:34 40.67219 12.97634 38108 ft 434 kts 355°
2026-04-29 19:35 40.73253 12.97150 38107 ft 435 kts 355°
2026-04-29 19:35 40.79293 12.96670 38106 ft 434 kts 355°
2026-04-29 19:36 40.85319 12.96186 38115 ft 434 kts 355°
2026-04-29 19:36 40.91347 12.95706 38114 ft 434 kts 355°
2026-04-29 19:37 40.97367 12.95292 38112 ft 433 kts 355°
2026-04-29 19:37 41.03395 12.94952 38113 ft 433 kts 356°
2026-04-29 19:38 41.09416 12.94604 38120 ft 433 kts 355°
2026-04-29 19:38 41.15426 12.94239 38119 ft 432 kts 355°
2026-04-29 19:39 41.21430 12.93864 38118 ft 432 kts 355°
2026-04-29 19:39 41.27430 12.93474 38120 ft 431 kts 355°
2026-04-29 19:40 41.33422 12.93099 38122 ft 431 kts 355°
2026-04-29 19:40 41.39405 12.92729 38126 ft 430 kts 355°
2026-04-29 19:41 41.45390 12.92354 38122 ft 430 kts 355°
2026-04-29 19:41 41.51359 12.91979 38111 ft 429 kts 355°
2026-04-29 19:42 41.57237 12.90868 38108 ft 426 kts 345°
2026-04-29 19:42 41.63009 12.89093 38109 ft 426 kts 345°
2026-04-29 19:43 41.68782 12.87322 38114 ft 426 kts 345°
2026-04-29 19:43 41.74551 12.85554 38120 ft 425 kts 345°
2026-04-29 19:44 41.80315 12.83785 38114 ft 425 kts 345°
2026-04-29 19:44 41.86068 12.82018 38106 ft 424 kts 345°
2026-04-29 19:45 41.91780 12.80255 38112 ft 424 kts 345°
2026-04-29 19:45 41.97529 12.78484 38106 ft 424 kts 345°
2026-04-29 19:46 42.03308 12.76697 38101 ft 423 kts 345°
2026-04-29 19:46 42.09013 12.74925 38100 ft 423 kts 345°
2026-04-29 19:47 42.14748 12.73142 38106 ft 423 kts 345°
2026-04-29 19:47 42.20486 12.71360 38112 ft 423 kts 345°
2026-04-29 19:48 42.26235 12.69567 38112 ft 423 kts 345°
2026-04-29 19:48 42.31972 12.67776 38134 ft 424 kts 344°
2026-04-29 19:49 42.37713 12.65980 38128 ft 423 kts 344°
2026-04-29 19:49 42.43456 12.64177 38124 ft 423 kts 344°
2026-04-29 19:50 42.49182 12.62380 38128 ft 423 kts 344°
2026-04-29 19:50 42.54920 12.60571 38138 ft 423 kts 344°
2026-04-29 19:51 42.60650 12.58769 38127 ft 423 kts 344°
2026-04-29 19:51 42.66381 12.56964 38140 ft 423 kts 344°
2026-04-29 19:52 42.72118 12.55139 38131 ft 422 kts 344°
2026-04-29 19:52 42.77841 12.53327 38135 ft 422 kts 344°
2026-04-29 19:53 42.83559 12.51519 38135 ft 422 kts 344°
2026-04-29 19:53 42.89272 12.49703 38139 ft 422 kts 344°
2026-04-29 19:54 42.97843 12.46970 38138 ft 421 kts 343°
2026-04-29 19:54 43.03547 12.45144 38133 ft 421 kts 343°
2026-04-29 19:55 43.09244 12.43318 38128 ft 420 kts 343°
2026-04-29 19:55 43.14939 12.41483 38127 ft 420 kts 343°